Tracking 18980 objects as of 19-Feb-2018
HD Live streaming from Space Station
objects crossing your sky now

FENGYUN 1C DEB

Track FENGYUN 1C DEB now!
10-day predictions


NORAD ID: 32105
Int'l Code: 1999-025CQX
Perigee: 822.1 km
Apogee: 1,487.5 km
Inclination: 103.4 °
Period: 108.3 minutes
Semi major axis: 7525 km
RCS: 0.0182 m2 (small)
Launch date: May 10, 1999
Source: People's Republic of China (PRC)
Launch site: Taiyaun Space Center, China (TSC)

Note: This is SATELLITE DEBRIS
aabbcc
Your satellite tracking list
Your tracking list is empty




NASA's NSSDC Master Catalog

Two Line Element Set (TLE):
1 32105U 99025CQX 18049.22082736  .00000415  00000-0  60562-3 0  9990
2 32105 103.4477 198.9682 0442081 186.1821 173.3716 13.29771380512038
Source of the keplerian elements: AFSPC